Temp
11 11 11 11 11 11 11 11 11 11 11 11 11 11 11 11 11 12 12 12 11 11 12 12 12 12 12 13 13 12 12 12 12 11 11 11 12 11 11 11 11 11 11 11 11
11 11 12 12 12 11 12 11 11 11 11 11 11 11 11 11 11 11 12 12 12 12 12 12 12 12 12 13 13 12 12 12 12 12 12 11 11 11 11 11 11 11 11 11 12
11 12 12 12 12 12 12 12 12 12 11 11 11 11 11 11 11 11 11 12 12 12 12 12 12 12 13 13 13 13 12 12 13 13 12 12 11 11 11 11 11 11 11 12 12
11 12 12 12 12 12 12 12 12 12 12 12 12 12 12 11 11 11 11 11 12 12 12 12 12 13 13 13 13 13 12 13 13 13 13 12 12 12 11 11 11 11 11 11 12
11 12 12 12 12 12 13 13 13 13 13 13 13 13 13 12 11 11 11 11 12 12 12 12 12 12 13 13 13 13 13 13 13 13 12 13 12 12 12 12 11 11 11 11 11
12 12 12 12 12 13 13 13 13 13 13 13 13 13 13 13 12 11 11 11 12 12 12 12 12 12 13 13 13 13 13 13 13 13 13 12 13 13 13 12 12 11 11 11 11
11 12 12 12 12 13 13 13 13 14 14 14 14 14 14 13 13 12 12 12 12 12 12 12 12 12 13 13 13 13 13 14 13 13 13 13 13 14 14 13 13 12 11 11 11
12 12 12 13 13 13 13 13 14 14 14 14 14 14 14 14 13 13 12 12 12 12 12 12 12 13 13 13 13 13 14 14 14 13 13 12 15 13 14 13 13 12 11 11 11
12 12 12 12 13 13 13 14 14 14 14 14 14 14 14 13 13 12 12 12 12 13 12 12 11 12 13 13 13 14 14 14 14 14 13 13 14 14 14 14 13 13 12 12 11
12 12 12 13 13 13 14 14 14 14 14 14 14 14 14 13 13 12 12 12 12 12 12 12 12 12 13 13 13 13 14 14 14 14 13 14 15 14 14 14 14 13 13 13 12
12 13 13 13 13 13 14 14 14 14 14 14 14 14 14 14 13 13 12 12 12 12 12 12 12 12 13 12 13 13 13 14 15 15 14 15 15 16 14 14 14 14 13 13 13
12 13 13 13 13 14 14 14 14 14 15 14 14 14 13 13 13 13 12 12 12 12 12 12 12 13 12 12 13 13 13 15 15 15 14 15 15 15 15 15 15 15 14 13 13
12 13 13 13 13 14 14 14 14 14 15 14 15 15 13 13 13 12 12 12 12 12 12 11 12 12 12 13 13 13 14 14 14 15 15 15 15 15 16 16 16 16 15 14 13
12 13 13 13 14 14 14 14 14 14 14 14 15 14 13 13 13 12 12 12 12 12 12 12 13 13 13 13 13 14 14 14 14 14 15 15 14 16 16 16 16 16 15 15 14
12 13 13 13 13 13 13 13 13 13 12 14 14 14 14 13 13 13 12 12 12 12 12 13 13 13 13 14 14 14 14 14 15 15 15 15 15 16 17 17 17 16 16 16 15
12 12 12 12 13 13 13 13 13 13 13 14 14 14 14 13 13 13 12 12 12 12 12 13 13 13 14 14 14 14 14 14 14 14 13 14 14 17 17 17 17 17 16 16 16
12 12 12 12 13 13 13 13 13 13 13 14 13 14 14 13 13 13 13 13 12 12 12 13 14 15 14 15 15 15 14 13 12 11 10 14 15 16 17 16 18 17 17 16 16
12 12 12 12 12 12 12 12 13 13 13 13 14 14 13 13 13 13 13 13 13 12 12 12 14 15 15 15 14 14 14 14 11 9 12 14 15 16 16 16 18 18 17 17 16
11 12 12 12 12 12 12 12 12 12 12 13 13 13 13 13 14 13 13 13 13 13 12 13 13 15 14 14 14 14 15 15 14 12 12 14 16 16 17 17 17 17 17 17 16
11 11 11 11 11 11 11 11 11 12 13 13 13 13 13 13 13 13 13 12 12 13 13 13 13 15 15 14 15 15 15 15 14 11 11 13 14 16 16 17 17 17 17 17 16
10 11 11 11 11 11 11 11 12 12 12 12 12 13 13 12 12 13 12 12 12 13 13 13 13 14 14 15 15 15 15 15 14 14 9 9 14 16 16 16 16 16 17 17 17
10 10 11 10 10 10 10 11 11 12 12 12 12 12 12 12 12 12 12 12 12 12 11 12 12 13 13 14 14 15 14 15 13 13 13 12 14 15 15 15 15 16 16 17 17
10 10 10 10 9 10 10 11 11 11 12 12 12 11 11 11 11 11 11 11 11 11 11 11 11 11 13 13 14 13 13 13 13 13 13 11 14 15 15 15 15 15 15 16 16
10 10 9 9 9 10 10 10 10 11 11 11 11 10 10 10 10 10 10 10 10 10 10 10 10 10 10 11 11 12 12 11 11 12 13 13 14 14 14 14 15 15 15 15 15
10 10 10 10 10 10 10 10 10 10 10 10 10 10 10 9 9 9 9 10 10 10 9 8 8 9 10 10 10 10 11 10 10 11 11 12 12 13 14 14 14 14 14 14 15
10 10 10 10 9 9 10 10 10 10 10 9 9 9 9 9 9 9 9 8 9 8 8 8 8 8 8 9 9 9 10 11 11 10 11 11 11 11 12 13 13 14 14 14 14
10 10 10 10 9 9 9 9 9 9 9 9 9 9 8 8 8 8 8 8 7 7 8 7 7 7 6 8 8 8 9 9 9 9 10 10 10 11 11 12 12 12 12 13 13
Height
3154 3155 3156 3157 3159 3160 3162 3163 3164 3165 3166 3167 3168 3169 3170 3171 3172 3173 3174 3176 3177 3178 3179 3179 3180 3180 3179 3178 3177 3176 3176 3175 3173 3172 3172 3170 3170 3171 3173 3174 3173 3174 3174 3174 3173
3154 3154 3155 3156 3157 3159 3160 3161 3163 3164 3165 3166 3167 3168 3169 3170 3172 3173 3175 3174 3176 3178 3179 3180 3181 3180 3178 3178 3177 3177 3177 3176 3174 3174 3173 3172 3172 3172 3173 3173 3173 3173 3174 3173 3171
3153 3153 3154 3155 3156 3157 3158 3159 3160 3162 3163 3164 3165 3166 3167 3169 3171 3172 3173 3173 3176 3178 3179 3180 3181 3181 3179 3178 3178 3177 3177 3177 3176 3175 3174 3173 3173 3172 3172 3172 3173 3173 3174 3173 3170
3152 3153 3153 3154 3154 3156 3157 3158 3158 3159 3161 3162 3163 3164 3165 3167 3171 3170 3171 3173 3175 3177 3179 3180 3181 3181 3179 3179 3179 3179 3178 3177 3177 3175 3175 3174 3173 3172 3172 3172 3172 3173 3173 3172 3172
3152 3152 3152 3153 3153 3154 3155 3156 3157 3158 3159 3160 3161 3162 3163 3166 3168 3168 3170 3172 3174 3176 3178 3180 3181 3181 3180 3179 3179 3178 3178 3178 3177 3176 3175 3174 3174 3172 3171 3171 3172 3172 3173 3173 3172
3152 3152 3152 3152 3153 3153 3154 3155 3156 3157 3157 3158 3159 3160 3162 3165 3165 3167 3169 3171 3173 3175 3177 3179 3180 3181 3181 3180 3179 3179 3178 3178 3178 3177 3177 3176 3174 3172 3171 3171 3171 3172 3173 3174 3174
3152 3152 3152 3152 3152 3153 3153 3154 3155 3156 3157 3158 3159 3160 3161 3164 3164 3166 3168 3170 3172 3174 3176 3177 3179 3181 3181 3180 3179 3179 3179 3178 3178 3177 3177 3176 3174 3172 3171 3171 3171 3171 3172 3174 3175
3152 3152 3152 3152 3152 3153 3153 3154 3155 3156 3157 3158 3158 3160 3161 3163 3164 3166 3168 3169 3171 3174 3176 3176 3177 3180 3180 3180 3180 3179 3179 3178 3178 3177 3176 3176 3172 3173 3171 3170 3171 3171 3171 3172 3175
3152 3152 3152 3152 3152 3153 3153 3154 3155 3156 3157 3158 3159 3160 3161 3162 3164 3165 3167 3169 3170 3173 3174 3175 3176 3179 3180 3179 3180 3180 3179 3178 3177 3176 3175 3175 3170 3171 3170 3169 3169 3170 3170 3170 3172
3151 3151 3151 3152 3152 3153 3154 3154 3155 3156 3158 3159 3160 3162 3162 3163 3162 3164 3165 3167 3168 3170 3173 3174 3175 3177 3179 3179 3180 3179 3178 3177 3175 3176 3173 3171 3168 3169 3169 3169 3168 3167 3168 3168 3169
3150 3150 3150 3151 3152 3153 3154 3154 3158 3158 3157 3158 3159 3159 3160 3162 3162 3163 3163 3165 3167 3169 3171 3172 3174 3174 3178 3179 3179 3179 3178 3176 3173 3174 3171 3168 3166 3166 3166 3165 3165 3164 3165 3167 3167
3148 3148 3149 3150 3150 3152 3153 3154 3155 3157 3156 3156 3157 3157 3158 3160 3162 3162 3163 3165 3166 3168 3170 3172 3171 3175 3176 3177 3177 3177 3176 3173 3172 3171 3169 3166 3164 3164 3163 3161 3161 3161 3161 3163 3165
3146 3146 3147 3148 3149 3151 3152 3153 3154 3154 3155 3156 3155 3155 3156 3160 3161 3163 3164 3164 3166 3168 3169 3170 3172 3173 3174 3175 3176 3176 3175 3174 3172 3168 3167 3163 3160 3160 3160 3158 3158 3156 3156 3157 3160
3144 3144 3145 3147 3150 3150 3151 3152 3153 3153 3155 3157 3156 3156 3157 3159 3162 3163 3164 3167 3167 3169 3169 3170 3171 3171 3172 3173 3175 3172 3173 3171 3169 3167 3165 3164 3158 3155 3155 3155 3155 3153 3152 3152 3155
3141 3142 3144 3145 3147 3149 3151 3152 3152 3154 3156 3159 3158 3158 3158 3161 3163 3162 3165 3166 3167 3169 3171 3170 3169 3170 3170 3171 3172 3172 3171 3170 3168 3166 3164 3163 3162 3152 3153 3153 3152 3151 3150 3150 3151
3139 3140 3142 3144 3146 3148 3150 3151 3153 3156 3156 3158 3158 3159 3159 3160 3162 3163 3164 3166 3167 3168 3167 3166 3167 3167 3167 3169 3169 3170 3168 3167 3166 3164 3163 3160 3162 3150 3151 3152 3149 3148 3148 3149 3151
3138 3139 3141 3143 3145 3147 3150 3151 3154 3154 3157 3159 3158 3158 3160 3161 3162 3163 3164 3165 3167 3167 3166 3166 3162 3162 3163 3165 3167 3167 3165 3165 3165 3164 3162 3159 3159 3152 3151 3149 3146 3145 3146 3148 3150
3137 3139 3140 3142 3144 3147 3150 3153 3153 3156 3156 3157 3156 3157 3160 3161 3162 3163 3163 3164 3166 3166 3165 3166 3162 3161 3161 3164 3164 3163 3161 3162 3165 3165 3159 3158 3155 3151 3151 3149 3146 3145 3146 3146 3148
3138 3139 3140 3142 3144 3147 3151 3152 3153 3155 3156 3156 3156 3158 3160 3161 3162 3162 3162 3162 3163 3164 3166 3164 3158 3159 3160 3161 3162 3159 3158 3158 3157 3157 3158 3154 3152 3150 3149 3148 3145 3146 3146 3147 3148
3139 3139 3140 3142 3144 3147 3151 3152 3154 3154 3155 3156 3157 3159 3159 3161 3162 3161 3161 3162 3161 3161 3161 3161 3158 3155 3156 3157 3156 3156 3156 3155 3154 3157 3158 3150 3149 3148 3147 3146 3146 3146 3146 3147 3147
3141 3141 3141 3142 3144 3147 3150 3152 3153 3154 3155 3157 3157 3158 3159 3160 3160 3160 3160 3160 3160 3159 3158 3157 3156 3152 3154 3153 3152 3152 3151 3151 3151 3151 3150 3152 3146 3146 3146 3146 3145 3146 3145 3145 3145
3142 3143 3142 3143 3147 3148 3150 3151 3153 3154 3154 3155 3156 3157 3157 3158 3158 3159 3159 3159 3157 3156 3156 3155 3153 3148 3149 3150 3148 3147 3147 3147 3146 3145 3144 3143 3141 3143 3143 3144 3143 3143 3143 3142 3142
3142 3143 3143 3144 3146 3148 3150 3151 3152 3153 3154 3155 3155 3155 3156 3156 3158 3157 3156 3156 3155 3154 3153 3151 3149 3147 3144 3147 3145 3143 3143 3143 3142 3141 3139 3140 3140 3140 3141 3141 3141 3141 3140 3140 3140
3144 3144 3145 3145 3146 3148 3149 3150 3151 3152 3152 3153 3154 3154 3154 3154 3154 3154 3153 3153 3152 3151 3149 3147 3145 3145 3144 3143 3141 3140 3139 3139 3138 3137 3134 3133 3134 3137 3138 3137 3138 3137 3138 3138 3136
3143 3144 3145 3145 3146 3147 3148 3149 3150 3151 3151 3152 3151 3151 3151 3151 3149 3148 3147 3146 3145 3143 3143 3143 3139 3138 3137 3136 3136 3135 3134 3134 3134 3134 3131 3130 3128 3131 3131 3132 3133 3132 3131 3132 3133
3142 3143 3143 3144 3145 3146 3146 3147 3147 3148 3149 3149 3149 3147 3146 3146 3145 3143 3142 3141 3140 3139 3136 3135 3132 3130 3128 3129 3128 3126 3127 3128 3127 3125 3124 3124 3124 3123 3125 3125 3124 3125 3126 3127 3128
3141 3141 3141 3141 3142 3144 3144 3144 3144 3145 3145 3144 3144 3144 3143 3142 3140 3139 3139 3138 3135 3132 3131 3129 3128 3127 3124 3125 3125 3123 3120 3120 3120 3119 3119 3119 3119 3118 3119 3119 3119 3120 3120 3120 3119
Wind_Speed
7 10 11 11 11 10 9 9 9 8 8 7 7 7 6 5 6 7 9 10 10 11 13 6 5 8 8 8 8 10 9 11 13 10 10 5 11 7 6 5 3 5 5 11 4
5 7 10 12 12 11 11 11 11 11 11 10 10 9 8 8 7 7 9 11 12 12 10 7 5 10 9 6 6 7 8 9 11 13 11 8 1 3 4 7 6 6 6 12 5
5 6 8 9 10 11 12 12 12 12 12 12 12 11 10 9 9 10 8 12 14 14 11 7 3 5 8 6 8 9 7 8 9 13 11 11 7 6 8 7 8 11 12 8 3
4 5 7 8 9 9 9 10 10 10 10 10 10 10 10 10 7 14 11 10 15 16 11 8 2 5 7 5 7 8 6 6 8 11 13 11 11 11 10 6 6 8 7 9 6
3 3 5 6 7 7 7 7 6 6 6 6 6 8 8 10 9 12 13 12 15 17 11 7 4 3 6 3 5 8 4 3 7 10 12 12 11 13 11 9 5 6 2 7 6
1 2 3 4 5 6 6 5 5 5 4 4 4 5 7 10 11 12 14 13 16 20 14 9 8 6 4 1 0 9 6 5 10 11 12 12 13 9 10 9 6 4 6 2 7
1 1 2 3 4 4 4 4 4 4 3 3 4 5 7 11 11 10 9 12 17 22 17 13 11 10 6 6 5 7 7 8 8 12 15 14 9 7 8 9 5 3 6 4 4
2 1 1 2 3 4 4 4 4 4 4 4 4 5 6 7 7 9 7 10 16 20 18 14 14 15 11 11 8 10 6 10 11 13 13 14 12 6 8 8 9 4 5 7 3
2 1 1 2 2 3 4 4 4 4 4 4 4 5 9 9 8 9 12 10 15 20 17 15 17 14 13 16 11 5 7 13 14 13 11 17 21 10 11 11 10 9 2 6 7
3 2 1 1 2 2 3 3 3 3 4 4 3 6 7 6 8 9 10 15 17 20 20 19 20 16 11 14 7 6 13 17 18 20 23 19 13 15 18 16 15 14 8 5 8
5 4 3 2 2 2 1 1 1 1 2 2 3 6 7 6 5 8 11 12 18 20 22 20 21 20 7 9 11 11 15 19 12 18 19 15 12 8 17 19 19 18 17 8 2
7 6 6 4 4 3 3 3 4 2 2 6 7 8 9 8 5 3 10 13 15 16 17 17 21 10 7 7 9 12 16 16 17 14 19 14 12 12 16 18 21 22 22 14 7
9 8 8 7 6 5 5 4 3 3 3 3 2 6 14 9 5 3 5 7 8 10 12 11 7 8 5 6 9 11 14 18 24 19 15 15 23 19 19 18 21 18 17 17 13
9 9 9 9 8 6 4 3 2 2 5 5 4 2 8 6 3 4 6 6 7 4 6 7 9 5 7 8 7 11 11 14 22 19 14 12 16 25 13 15 12 15 14 14 12
7 9 9 9 9 6 4 2 1 5 4 2 5 3 3 7 2 3 8 4 3 1 4 2 4 7 13 10 11 14 14 19 16 14 15 13 11 17 16 9 20 21 13 5 6
6 8 8 9 8 7 4 3 5 3 3 3 3 3 2 5 3 2 9 9 8 10 14 11 14 14 14 12 12 15 19 17 17 18 9 14 7 9 10 22 26 18 8 4 7
4 6 8 9 9 8 5 8 5 3 4 6 6 3 1 7 6 5 5 8 11 7 10 13 13 9 11 7 6 12 18 6 4 3 6 1 8 15 17 26 16 7 4 5 6
3 5 7 9 10 8 8 8 4 8 9 8 7 7 5 1 3 9 7 9 12 16 21 17 7 4 3 3 6 22 9 7 5 3 6 12 6 13 18 19 7 6 4 10 9
4 5 7 10 10 9 11 3 4 4 4 9 6 12 7 4 1 4 6 5 7 13 22 9 18 12 22 24 20 17 13 10 12 4 2 5 10 16 7 8 7 3 6 8 10
7 6 8 9 8 13 15 7 4 2 5 6 6 4 4 3 2 3 8 6 3 4 4 13 22 17 15 16 11 9 15 8 7 3 4 5 9 14 14 16 14 12 8 9 11
6 4 6 8 9 13 12 2 6 4 3 2 1 2 2 3 3 3 4 9 7 4 4 6 14 23 20 10 17 12 13 12 9 6 7 3 7 11 17 19 19 14 14 13 9
4 4 10 13 12 12 9 5 5 6 4 4 3 2 4 6 6 6 8 7 8 10 9 8 9 20 20 17 16 13 11 13 10 6 10 8 21 16 14 12 11 15 20 11 11
5 7 13 12 9 10 7 6 5 3 4 4 4 5 7 6 4 4 10 11 16 19 12 15 6 10 16 16 10 8 10 8 8 10 12 5 6 4 14 12 11 9 13 14 12
6 4 8 7 7 9 6 6 4 4 5 5 6 7 8 10 11 9 14 16 18 20 22 21 14 14 13 13 18 18 14 11 11 11 16 18 20 18 16 20 21 21 16 12 10
9 7 7 7 8 5 5 5 5 5 7 9 10 11 12 13 17 15 18 24 22 16 7 12 21 23 25 25 26 27 27 24 19 19 23 24 25 21 24 23 22 17 10 13 12
8 9 8 9 9 9 8 9 9 9 11 13 12 13 17 17 18 18 18 17 18 19 21 22 15 19 23 19 19 21 26 31 31 24 22 13 15 15 17 19 17 22 18 17 17
1 5 9 10 13 13 14 15 14 14 13 13 16 18 17 18 17 15 16 17 19 21 19 17 8 9 7 2 13 18 15 17 18 19 18 16 16 15 14 15 17 18 20 21 23
Wind_Direction
174 188 197 204 207 210 211 212 216 218 219 215 213 208 203 190 173 162 159 160 165 144 152 142 93 55 34 27 43 38 43 43 30 24 24 63 138 148 219 257 320 335 346 345 288
185 191 205 214 219 225 229 231 231 231 230 228 226 222 217 211 192 176 178 181 172 170 169 162 83 48 39 43 58 43 34 33 31 38 28 33 52 254 293 328 315 318 314 333 319
205 206 212 220 224 229 236 242 242 240 238 234 230 227 222 217 204 190 191 193 179 179 180 182 70 53 43 69 53 34 34 17 29 22 32 30 17 339 330 337 317 277 304 340 353
214 213 217 225 230 232 235 239 242 241 239 234 230 225 218 212 201 202 203 196 181 181 188 193 152 83 70 66 20 8 360 360 13 13 20 23 14 3 346 332 315 278 300 8 43
226 210 215 217 222 227 228 229 231 229 224 220 216 213 208 200 190 192 204 198 180 184 188 187 192 129 107 78 62 22 355 349 345 349 355 358 358 342 346 345 300 282 240 17 58
258 206 212 205 207 211 215 210 208 207 206 202 201 195 194 183 195 188 199 200 183 187 190 189 206 200 171 228 340 355 342 300 316 324 321 335 336 341 341 337 330 297 238 69 79
7 198 202 202 201 190 192 188 185 176 164 161 168 187 189 189 201 191 185 192 186 188 193 204 212 210 198 233 246 319 339 324 349 312 300 310 322 13 353 338 343 325 237 195 140
2 42 143 185 201 188 181 171 169 161 152 153 153 153 155 145 164 198 201 201 190 192 199 208 223 218 222 235 270 323 346 358 349 348 304 287 322 302 342 337 313 331 235 211 141
320 338 113 139 160 177 175 164 159 146 134 135 133 137 141 158 166 181 190 194 194 197 201 212 230 225 233 255 263 311 322 325 330 350 315 294 295 284 305 312 313 300 325 227 201
294 277 240 171 153 156 158 150 141 119 124 122 152 154 168 182 197 181 208 205 201 201 207 214 234 240 254 248 262 288 316 320 327 335 322 305 293 282 281 298 300 289 277 278 246
283 267 255 228 222 199 209 205 248 323 144 139 181 216 201 178 158 198 207 196 198 204 210 218 232 246 249 242 246 284 303 309 333 344 329 320 307 310 282 285 294 292 281 289 287
274 263 253 244 246 247 260 281 356 300 309 283 261 242 233 218 218 209 190 198 202 206 209 222 236 237 224 220 245 277 306 319 322 330 327 326 322 319 286 285 294 292 281 273 239
264 256 250 246 245 258 277 312 322 322 4 85 16 208 214 218 223 155 163 176 203 200 201 220 146 168 201 225 262 304 302 329 333 318 323 319 311 317 315 300 306 301 288 271 254
259 246 244 240 241 253 271 296 325 13 97 76 68 100 206 208 277 191 153 127 168 157 203 247 204 237 279 269 313 299 327 317 330 315 307 308 307 318 326 320 345 347 307 282 280
254 236 233 233 228 235 243 247 167 135 63 100 78 40 124 179 95 184 178 189 170 73 245 139 262 287 286 246 294 287 309 311 322 317 295 284 297 295 315 6 354 354 342 299 266
247 221 219 219 212 210 202 162 148 128 65 108 53 6 22 169 151 137 189 214 237 257 272 289 291 273 248 245 265 287 292 297 298 293 276 289 278 281 336 338 332 336 326 261 160
219 205 205 205 200 197 170 151 116 59 100 43 348 324 150 189 209 261 252 241 230 258 286 313 300 232 229 232 255 289 280 284 308 334 229 85 311 283 330 335 331 319 224 208 220
181 183 190 195 199 190 164 142 95 88 83 35 8 121 117 154 250 251 269 270 268 266 282 298 325 43 198 259 290 324 277 221 202 213 264 302 250 307 324 346 318 299 229 227 221
141 167 180 187 187 174 158 122 81 86 63 61 72 138 106 45 130 304 247 279 282 266 251 270 276 287 292 296 291 303 292 302 237 286 305 257 281 316 317 343 34 228 250 242 237
104 136 166 175 182 175 169 93 86 133 118 91 67 126 200 256 290 16 174 141 98 52 283 260 269 291 298 320 312 257 291 272 233 156 244 262 277 289 315 328 328 327 281 284 258
103 108 148 158 159 165 170 113 92 154 163 120 123 185 250 299 309 310 221 235 257 307 342 284 263 279 296 296 308 291 274 272 259 232 179 224 264 285 296 307 317 315 297 295 245
178 120 140 135 137 139 147 132 119 133 161 175 229 239 293 305 307 276 256 232 281 307 322 268 280 283 285 289 285 271 272 267 234 236 226 246 265 273 268 286 293 303 306 257 242
183 175 161 153 142 148 136 158 170 179 193 227 251 288 300 306 328 272 270 272 298 302 299 303 286 311 288 272 279 204 188 220 263 259 243 195 248 294 248 249 271 284 290 262 231
192 159 177 178 169 174 168 187 215 255 278 281 272 274 282 291 296 289 287 288 290 292 291 288 272 261 253 265 275 275 257 273 279 266 266 254 269 270 266 271 278 279 280 273 241
217 226 227 233 231 221 232 255 256 274 282 288 286 292 303 308 306 305 301 304 305 309 286 282 287 280 273 269 261 265 273 280 273 276 270 273 268 268 267 270 274 283 277 259 260
233 241 239 254 253 253 265 274 281 289 298 298 300 310 313 313 313 313 314 318 315 307 304 305 288 293 282 280 274 268 258 259 267 279 265 238 248 251 256 261 254 252 248 248 247
291 247 252 258 250 250 258 265 275 291 301 303 306 307 306 307 307 308 310 312 302 298 298 299 292 301 289 255 294 287 275 263 263 243 252 255 253 241 240 250 258 259 255 248 239